This demonstration page uses our WeatherBlox Daily Observations layout. Learn more.

Left ArrowRight Arrow

Hourly Observations for May 18, 2022

Temp ( °F °C ) Dew Point ( °F °C ) Humidity (%) Winds ( mph kmh ) Pressure ( in mb ) Visibility ( mi km ) Precip ( " mm )
12:53 am 00:53 Clear 82 27.8 41 5 23 23 SSE 13 20 29.72 1006 10 16 0.00 0.00
1:53 am 01:53 Clear 78 25.6 42 5.6 28 28 SSE 7 11 29.71 1006 10 16 0.00 0.00
2:53 am 02:53 Clear 73 22.8 41 5 32 32 SSE 8 13 29.70 1006 10 16 0.00 0.00
3:53 am 03:53 Clear 68 20 40 4.4 36 36 SE 10 17 29.69 1005 10 16 0.00 0.00
4:53 am 04:53 Clear 68 20 42 5.6 39 39 S 8 13 29.70 1006 10 16 0.00 0.00
5:53 am 05:53 Clear 65 18.3 40 4.4 40 40 S 3 6 29.72 1006 10 16 0.00 0.00
6:53 am 06:53 Clear 65 18.3 39 3.9 39 39 SSW 6 9 29.72 1007 10 16 0.00 0.00
7:53 am 07:53 Sunny 71 21.7 17 -8.3 13 13 SW 12 19 29.74 1007 10 16 0.00 0.00
8:53 am 08:53 Sunny 81 27.2 11 -11.7 7 7 WSW 15 24 29.74 1007 10 16 0.00 0.00
9:53 am 09:53 Sunny 85 29.4 11 -11.7 6 6 W 17 28 29.76 1008 10 16 0.00 0.00
10:53 am 10:53 Sunny 90 32.2 10 -12.2 5 5 W 17 28 29.75 1008 10 16 0.00 0.00
11:53 am 11:53 Sunny 93 33.9 10 -12.2 4 4 WNW 20 31 29.76 1008 10 16 0.00 0.00
12:53 pm 12:53 Sunny 94 34.4 24 -4.4 8 8 WNW 15 24 29.75 1007 10 16 0.00 0.00
1:53 pm 13:53 Sunny 95 35 31 -0.6 10 10 WNW 14 22 29.73 1007 10 16 0.00 0.00
2:53 pm 14:53 Sunny 97 36.1 31 -0.6 10 10 WNW 12 19 29.72 1006 10 16 0.00 0.00
3:53 pm 15:53 Sunny 99 37.2 29 -1.7 8 8 WNW 12 19 29.70 1006 10 16 0.00 0.00
4:53 pm 16:53 Sunny 98 36.7 26 -3.3 8 8 WSW 9 15 29.68 1005 10 16 0.00 0.00
5:53 pm 17:53 Sunny 99 37.2 25 -3.9 7 7 WNW 14 22 29.66 1004 10 16 0.00 0.00
6:53 pm 18:53 Sunny 98 36.7 25 -3.9 7 7 SW 7 11 29.65 1004 10 16 0.00 0.00
7:53 pm 19:53 Sunny 97 36.1 22 -5.6 7 7 WSW 10 17 29.63 1004 10 16 0.00 0.00
8:53 pm 20:53 Clear 89 31.7 21 -6.1 8 8 WSW 8 13 29.64 1004 10 16 0.00 0.00
9:53 pm 21:53 Clear 84 28.9 21 -6.1 10 10 WSW 10 17 29.65 1004 10 16 0.00 0.00
10:53 pm 22:53 Clear 80 26.7 22 -5.6 11 11 SW 7 11 29.66 1004 10 16 0.00 0.00
11:53 pm 23:53 Clear 79 26.1 22 -5.6 12 12 SW 5 7 29.66 1005 10 16 0.00 0.00

Powered by AerisWeather